sat.trackr.live / text

‹ back to catalog

STARLINK-31386

NORAD 59298 · 2024-056C

PAYLOAD ACTIVE UNKNOWN

§ Identity

Operator
Country
US
Launch date
2024-03-24
Launch site
AFETR
Launch vehicle
Mass (kg)
RCS (m²)

Purposes: comms

External: N2YO · Heavens-Above · Gunter

§ Orbital elements

Epoch: 2026-09-20T03:25:26.940288Z

Period
94.27 min
Inclination
43.0009°
Eccentricity
0.0001231
Mean motion
15.27579604 rev/d
Perigee alt
482.2 km
Apogee alt
483.9 km
Semi-major
6,861.2 km
B*
3.4736e-5
RAAN
212.5202°
Arg perigee
267.4170°
Mean anomaly
92.6541°
Rev number
14,089

§ Raw data

STARLINK-313861 59298U 24056C   26263.14267292  .00000694  00000+0  34736-4 0  99972 59298  43.0009 212.5202 0001231 267.4170  92.6541 15.27579604140894

JSON: /api/v1/satellites/59298 · /tle

For live sub-satellite position, see the globe view (requires WebGL).

§ Visibility from observer

Set your observer location to see the next 7 days of passes ≥ 10°. The values pass through the URL so the page stays shareable.

No JS? Fill the form by hand. The geolocation button needs JavaScript.